Starlink 33733

operational
NORAD ID: 63435 Int'l Des: 2025-069 Owner: SPXS Country: US Constellation: starlink
LEOCIRCULAR

关于 Starlink 33733

正在加载描述...

实时位置

正在加载3D地球...

即将过境

高度历史

Altitude vs Time

uPlot chart will show altitude changes over time

两行轨道根数

1 63435U 25069C 25353.62457038 .00012687 00000-0 43978-3 0 9994
2 63435 53.1563 154.5701 0001481 105.0259 255.0906 15.30197773 41145
Epoch: Dec 19, 2025 • Age: 13 hours

当前状态

高度 478.1 km
速度 7.63 km/s
星下点 39.76°N, 45.02°E
发射日期 Apr 4, 2025
运行时间 0.7 years
类型 internet

技术详情

分类 Payload
质量 575.00 kg
干质量 530.00 kg
总质量 575.00 kg
长度 0.30 m
直径 4.10 m
跨度 29.00 m
形状 Box + pan
制造商 SPXS
平台类型 Starlink V2MO
阶段状态 In Orbit
所有者/国家 SPXS/US

大型星座

Loading constellations...